STARLINK-4720, 53800

Orbit data source: Space-Track

STARLINK-4720, 53800 is a payload satellite owned by SpaceX/Seattle (US) in LEO that was launched on Sun, 11 Sep 2022 UTC via an FALCON 9 launch vehicle from the Air Force Eastern Test Range (AFETR). Payload-class satellites include a variety of spacecraft equipped with specific instruments for various scientific and technological missions. These include communications satellites like Starlink; space stations such as the ISS; scientific satellites like the Hubble; Earth observation satellites from companies like Planet Labs, Umbra, and HawkEye 360; GPS; miniature CubeSats for education and research; and military/defense satellites.

Loading next visibility...
Identifier
53800, 2022-111AD
Orbit
LEO
Country
Flag of USUS
Related business
Manufacturer
SpaceX/Seattle
Mission
Operational Commercial Communications
Bus & Motor
STARLINK, Unknown motor
Mass
305 kg wet, ~290 kg dry
Launch date (UTC)
2022-09-11 (3 years ago)
Launch vehicle
FALCON 9
Launch site
Air Force Eastern Test Range (AFETR)
Object type
Payload
Rocket body
Debris
Shape & HBR
Box + 1 Pan, 10.1 m
Radar Cross Section
13.562 m², Large (>1 m²)

Expand to show TLE details & history
Last TLE update: 8 hours ago

TLE from 8 hours ago
0 STARLINK-4720
1 53800U 22111AD  26035.29429467  .00034559  00000-0  59612-3 0  9994
2 53800  53.2122  40.0158 0004741  57.5300 302.6168 15.50721124188974
Epoch: 2026-02-04T07:03Z
TLE epoch observation values (Epoch: 2026-02-04T07:03:47.059Z)
Latitude
-0.00004°
Longitude
159.60675°
Altitude
413.798 km
Speed
7.665 km/s
True Right ascension
02h 40m 03s
True Declination
0° 00' 00"
Sunlit
Object was in daylight at epoch
Visualization orbit readout
Latitude
Unknown
Longitude
Unknown
Altitude
Unknown
Speed
Unknown
Apparent Right ascension
Unknown
Apparent Declination
Unknown
Sunlit
N/A
Visualization observer readout
Local Sidereal Time
17:17:15
Azimuth
Unknown
Elevation
Unknown
Doppler factor
Unknown
Orbital elements
Apogee altitude
418.09 km
Perigee altitude
411.649 km
Semi-major axis
6,793.007 km
Eccentricity
0.00047
Inclination
53.2122°
RAAN
40.0158°
Arg. of periapsis
57.53°
True anomaly
302.57103°
Mean anomaly
302.6168°
Eccentric anomaly
302.59391°
Mean motion
3.87659 °/min
Orbital period
92.87 mins
BSTAR
0.00059612
Loading maneuver chart data...
Computing Atmospheric mass density...
Loading historical data...
Loading historical data...
Loading historical data...
Loading historical data...
Loading historical data...
Loading historical data...
Loading historical data...

Documentation

Showing up to 5 results
|